Miscellaneous Local Product
Issued by NWS Hastings, NE

Home | Current Version | Previous Version | Graphics & Text | Print | Product List | Glossary On
Versions: 1 2 3 4 5 6 7 8 9 10 11 12 13 14 15 16 17 18 19 20 21 22 23 24 25 26 27 28 29 30 31 32 33 34 35 36 37 38 39 40 41 42 43 44 45 46 47 48 49 50
000
AXUS43 KGID 260002
MISGRI

GID CWA HOURLY WEATHER ROUNDUP
NATIONAL WEATHER SERVICE HASTINGS NE
600 PM CST WED FEB 25 2015

NOTE: "FAIR" INDICATES FEW OR NO CLOUDS BELOW 12,000 FEET WITH NO
SIGNIFICANT WEATHER AND/OR OBSTRUCTIONS TO VISIBILITY.

...SOUTH CENTRAL NEBRASKA...

CITY           SKY/WX    TMP DP  RH WIND       PRES   REMARKS
GRAND ISLAND   CLOUDY    20  13  74 N28       30.08R WCI   2
HASTINGS       CLOUDY    22  13  68 N25G35    30.04R WCI   5
KEARNEY        CLOUDY    21  12  68 N26G32    30.05R WCI   4
ORD            CLOUDY    17   8  67 N22G32    30.09R WCI   0
YORK           CLOUDY    21  16  79 N28G36    30.04R WCI   3
AURORA         CLOUDY    21  15  78 N25G31    30.05R WCI   4
LEXINGTON      CLOUDY    26  15  64 N24G31    30.04R WCI  11
HOLDREGE       CLOUDY    24  14  65 N21G31    30.03R WCI   9
HEBRON         CLOUDY    25  17  70 N22G35    30.01R WCI  10

...NEBRASKA PANHANDLE...

CITY           SKY/WX    TMP DP  RH WIND       PRES   REMARKS
CHADRON        LGT SNOW  22  17  81 NE18      30.11R VSB 1   WCI   7
ALLIANCE       CLOUDY    26  19  74 NE9       30.00F WCI  17
SCOTTSBLUFF    CLOUDY    33  24  69 NE7       30.00S WCI  27
SIDNEY         MOCLDY    30  22  72 NE12      29.98S WCI  20

...WESTERN AND NORTH CENTRAL NEBRASKA...

CITY           SKY/WX    TMP DP  RH WIND       PRES   REMARKS
VALENTINE      CLOUDY    15   7  70 N18G25    30.15S WCI  -2
AINSWORTH      LGT SNOW  14   9  78 N18G25    30.14R WCI  -3
ONEILL         LGT SNOW  16  12  82 N15G24    30.12R WCI   2
BROKEN BOW     CLOUDY    20  11  68 N20G29    30.07R WCI   4
IMPERIAL         N/A     31  18  58 N22       30.01R WCI  18
NORTH PLATTE   CLEAR     23  11  60 N21G26    30.05R WCI   8
MCCOOK         CLEAR     31  18  58 NE21G28   30.01R WCI  18

...EASTERN NEBRASKA...

CITY           SKY/WX    TMP DP  RH WIND       PRES   REMARKS
NORFOLK        FLURRIES  17  10  74 N21G37    30.10R WCI   0
SO SIOUX CITY  CLOUDY    17   9  70 N23       30.11R WCI  -1
TEKAMAH        SNOW      19  14  81 N30       30.08R VSB 1/2 WCI   0
COLUMBUS       CLOUDY    19   7  58 N21       30.09R WCI   3
ALBION         LGT SNOW  18  11  74 N18G25    30.09R WCI   2
OMAHA EPPLEY   FLURRIES  21  14  74 N28G33    30.03R WCI   3
MILLARD        LGT SNOW  23  16  74 N13G25    30.01R WCI  11
LINCOLN        CLOUDY    22  16  78 N30G37    30.03R WCI   4
NEBRASKA CITY  CLOUDY    23  16  75 N30G38    29.96R WCI   5
BEATRICE       CLOUDY    24  19  80 N26G37    29.99R WCI   7
FALLS CITY     CLOUDY    25  17  72 N23G37    29.93R WCI  10

...NORTHERN KANSAS...

CITY           SKY/WX    TMP DP  RH WIND       PRES   REMARKS
GOODLAND       CLOUDY    35  26  69 N22G33    29.96R WCI  23
HILL CITY      PTCLDY    35  23  61 NE24G33   29.99R WCI  23
NORTON         MOCLDY    30  16  55 N21       30.00R WCI  17
PHILLIPSBURG   CLEAR     34  19  55 N18G30    30.02R WCI  23
SMITH CENTER   PTCLDY    27  18  69 N26G37    30.01R WCI  11
BELOIT         CLOUDY    30  19  64 N29       29.99R WCI  15
HAYS           PTCLDY    39  21  48 N29G36    29.94R WCI  28
RUSSELL        PTCLDY    38  24  57 N29G36    29.92R WCI  26
CONCORDIA      CLOUDY    26  20  77 N23G31    29.99R WCI  11
SALINA         CLOUDY    34  23  64 N32G40    29.94R WCI  20
TOPEKA         LGT SNOW  34  28  79 NW18G28   29.87R WCI  23



USA.gov is the U.S. government's official web portal to all federal, state and local government web resources and services.